Regional Weather Roundup
Issued by NWS

Home | Current Version | Previous Version | Text Only | Print | Product List | Glossary On
Versions: 1 2 3 4 5 6 7 8 9 10 11 12 13 14 15 16 17 18 19 20 21 22 23 24 25 26 27 28 29 30 31 32 33 34 35 36 37 38 39 40 41 42 43 44 45 46 47 48 49 50
000
ASUS43 KOAX 251802
RWRNE

WEATHER ROUNDUP FOR NEBRASKA
NATIONAL WEATHER SERVICE OMAHA NE
1200 PM CST SAT FEB 25 2017

NOTES: SATELLITE DATA IS BEING USED TO AUGMENT CLOUD COVER ABOVE
       12000 FEET.
       "FAIR" INDICATES FEW OR NO CLOUDS BELOW 12,000 FEET WITH NO
       SIGNIFICANT WEATHER AND/OR OBSTRUCTIONS TO VISIBILITY.

  * THESE STATIONS DO NOT REPORT WEATHER SUCH AS RAIN...SNOW OR FOG.

NEZ001>004-019>022-054>056-251900-
NEBRASKA PANHANDLE

CITY           SKY/WX    TMP DP  RH WIND       PRES   REMARKS
SCOTTSBLUFF    SUNNY     20   9  62 NW9       29.94F WCI   9
6HR MIN TEMP:  -2; 6HR MAX TEMP:  20;

ALLIANCE       SUNNY     20  14  77 W18       29.89F WCI   5
6HR MIN TEMP: -12; 6HR MAX TEMP:  20;

CHADRON        SUNNY     26  17  68 W10       29.91F WCI  16
6HR MIN TEMP:   2; 6HR MAX TEMP:  26;

KIMBALL        SUNNY     26  13  55 NW16      29.91F WCI  14
SIDNEY         SUNNY     28  14  55 NW16      29.93F WCI  16
6HR MIN TEMP:   2; 6HR MAX TEMP:  28;

$$

NEZ057>060-069>072-079>082-251900-
SOUTHWEST NEBRASKA

CITY           SKY/WX    TMP DP  RH WIND       PRES   REMARKS
NORTH PLATTE   SUNNY     26  16  65 W10       29.97F WCI  16
6HR MIN TEMP:   4; 6HR MAX TEMP:  26; 6HR PCP: TRACE;

IMPERIAL       SUNNY     30  16  56 W14       29.97F WCI  19
6HR MIN TEMP:  10; 6HR MAX TEMP:  30;

LEXINGTON      SUNNY     30  22  70 SW16G22   29.99F WCI  19
MCCOOK         SUNNY     37  25  61 W14G24    29.99F WCI  28
6HR MIN TEMP:   7; 6HR MAX TEMP:  37;

OGALLALA       SUNNY     31  17  55 W15       29.95F WCI  20
$$

NEZ005>010-023>029-035>040-094-251900-
NORTH CENTRAL NEBRASKA

CITY           SKY/WX    TMP DP  RH WIND       PRES   REMARKS
VALENTINE      SUNNY     19  10  68 W12       29.90F WCI   7
6HR MIN TEMP:  -4; 6HR MAX TEMP:  19;

AINSWORTH      SUNNY     22  15  75 W8        29.91F WCI  12
BROKEN BOW     SUNNY     29  19  66 SW17      29.95F WCI  17
6HR MIN TEMP:   3; 6HR MAX TEMP:  29;

O`NEILL        PTSUNNY   25  16  70 S12       29.96F WCI  14
ORD            SUNNY     26  15  63 S14       29.97F WCI  14
6HR MIN TEMP:  -1; 6HR MAX TEMP:  26;

THEDFORD       SUNNY     23  15  70 W10       29.92F WCI  13
$$

NEZ041-046>049-061>064-073>077-083>087-251900-
SOUTH CENTRAL NEBRASKA

CITY           SKY/WX    TMP DP  RH WIND       PRES   REMARKS
GRAND ISLAND   SUNNY     29  19  66 SW15      30.05F WCI  18
6HR MIN TEMP:  10; 6HR MAX TEMP:  29;

AURORA         MOSUNNY   28  18  68 S9        30.06F WCI  19
HASTINGS       SUNNY     28  17  63 SW13      30.06F WCI  17
6HR MIN TEMP:  11; 6HR MAX TEMP:  28;

HEBRON         SUNNY     29  19  64 SW7       30.13F WCI  22
HOLDREGE       SUNNY     32  21  64 S16G23    30.01F WCI  21
KEARNEY *      SUNNY     28  18  64 SW16      30.02F WCI  17
YORK           PTSUNNY   25  16  68 S9        30.09F WCI  15
$$

NEZ011>018-030>034-042>045-251900-
NORTHEAST NEBRASKA

CITY           SKY/WX    TMP DP  RH WIND       PRES   REMARKS
NORFOLK        PTSUNNY   24  12  60 S14       30.04F WCI  12
6HR MIN TEMP:   7; 6HR MAX TEMP:  24;

ALBION         SUNNY     27  14  60 S10       30.03F WCI  17
BLAIR          CLOUDY    25  17  73 SW6       30.10F WCI  18
FREMONT        CLOUDY    25  17  70 SW6       30.11F WCI  18
TEKAMAH        CLOUDY    24  17  74 SW7       30.11F WCI  16
6HR MIN TEMP:  11; 6HR MAX TEMP:  24;

WAYNE          CLOUDY    25  15  67 S9        30.05F WCI  15
$$

NEZ050>053-065>068-078-088>093-251900-
SOUTHEAST NEBRASKA

CITY           SKY/WX    TMP DP  RH WIND       PRES   REMARKS
LINCOLN        MOSUNNY   25  16  68 SW7       30.15S WCI  17
6HR MIN TEMP:  11; 6HR MAX TEMP:  25;

OMAHA EPPLEY   PTSUNNY   27  17  66 SE3       30.13F
6HR MIN TEMP:  14; 6HR MAX TEMP:  30;

BEATRICE       SUNNY     30  20  64 S7        30.14F WCI  23
FALLS CITY     MOSUNNY   29  18  63 W7        30.16F WCI  22
6HR MIN TEMP:  16; 6HR MAX TEMP:  29;

NEBRASKA CITY  CLOUDY    26  16  65 SW7       30.15R WCI  18
PLATTSMOUTH    PTSUNNY   24  14  65 SW5       30.13F WCI  19
$$

NEZ044-045-051>053-067-251900-
OMAHA AREA

CITY           SKY/WX    TMP DP  RH WIND       PRES   REMARKS
OMAHA EPPLEY   PTSUNNY   27  17  66 SE3       30.13F
6HR MIN TEMP:  14; 6HR MAX TEMP:  30;

BLAIR          CLOUDY    25  17  73 SW6       30.10F WCI  18
FREMONT        CLOUDY    25  17  70 SW6       30.11F WCI  18
MILLARD        CLOUDY    27  16  63 SW5       30.13F WCI  22
OFFUTT AFB     MOSUNNY   26  13  57 SW5       30.13F WCI  21
PLATTSMOUTH    PTSUNNY   24  14  65 SW5       30.13F WCI  19
WAHOO          FAIR      26  16  66 SW5       30.12S WCI  20
$$



USA.gov is the U.S. government's official web portal to all federal, state and local government web resources and services.